This is the latest recevied weather packets stored in our database for station/object PA3DZX-13. If no packets are shown the sender has not sent any weather packets the latest 10 day(s).
| Time | Temp. | Humidity | Pressure | Rain* | Wind** | Luminosity | Snow |
|---|---|---|---|---|---|---|---|
| 1777926242 | 13.89° C | 98% | 1013 hPa | 4.32 mm | - | - | - |
| 1777925341 | 13.89° C | 98% | 1013 hPa | 2.29 mm | - | - | - |
| 1777924442 | 13.89° C | 99% | 1013 hPa | 4.57 mm | - | - | - |
| 1777923540 | 13.89° C | 95% | 1013 hPa | 16.76 mm | - | - | - |
| 1777922640 | 15° C | 93% | 1013 hPa | 0.76 mm | - | - | - |
| 1777921741 | 15° C | 90% | 1012.5 hPa | 0 mm | - | - | - |
| 1777920840 | 15° C | 88% | 1012.4 hPa | 0 mm | - | - | - |
| 1777919940 | 15° C | 87% | 1012.4 hPa | 0 mm | - | - | - |
| 1777919039 | 15.56° C | 85% | 1012.4 hPa | 0 mm | - | - | - |
| 1777918138 | 15.56° C | 85% | 1012.3 hPa | 0 mm | - | - | - |
| 1777917237 | 15.56° C | 84% | 1012.3 hPa | 0 mm | - | - | - |
| 1777916336 | 15.56° C | 83% | 1012.2 hPa | 0 mm | - | - | - |
| 1777915435 | 16.67° C | 81% | 1012.2 hPa | 0 mm | - | - | - |
| 1777914535 | 16.67° C | 79% | 1012.2 hPa | 0 mm | - | - | - |
| 1777913634 | 16.67° C | 80% | 1012.1 hPa | 0 mm | - | - | - |
| 1777912735 | 16.67° C | 77% | 1012.1 hPa | 0 mm | - | - | - |
| 1777911833 | 16.67° C | 77% | 1012.3 hPa | 0 mm | - | - | - |
| 1777910933 | 16.67° C | 76% | 1012.3 hPa | 0 mm | - | - | - |
| 1777910033 | 17.78° C | 70% | 1012.2 hPa | 0 mm | - | - | - |
| 1777909133 | 17.78° C | 70% | 1012.2 hPa | 0 mm | - | - | - |
| 1777908232 | 17.78° C | 70% | 1012.2 hPa | 0 mm | - | - | - |
| 1777907331 | 17.78° C | 68% | 1012.3 hPa | 0 mm | - | - | - |
| 1777906431 | 18.89° C | 66% | 1012.4 hPa | 0 mm | - | - | - |
| 1777905531 | 18.89° C | 63% | 1012.5 hPa | 0 mm | - | - | - |
| 1777904631 | 18.89° C | 64% | 1012.6 hPa | 0 mm | - | - | - |
* Rain latest hour (hover to see other rain measurements)
** Current wind speed in m/s (hover to see current wind gust speed)